Regional Weather Roundup
Issued by NWS

Home | Current Version | Previous Version | Graphics & Text | Print | Product List | Glossary On
Versions: 1 2 3 4 5 6 7 8 9 10 11 12 13 14 15 16 17 18 19 20 21 22 23 24 25 26 27 28 29 30 31 32 33 34 35 36 37 38 39 40 41 42 43 44 45 46 47 48 49 50
000
ASUS43 KOAX 152302
RWRNE

WEATHER ROUNDUP FOR NEBRASKA
NATIONAL WEATHER SERVICE OMAHA NE
600 PM CDT TUE APR 15 2014

NOTES: SATELLITE DATA IS BEING USED TO AUGMENT CLOUD COVER ABOVE
       12000 FEET.
       "FAIR" INDICATES FEW OR NO CLOUDS BELOW 12,000 FEET WITH NO
       SIGNIFICANT WEATHER AND/OR OBSTRUCTIONS TO VISIBILITY.

  * THESE STATIONS DO NOT REPORT WEATHER SUCH AS RAIN...SNOW OR FOG.

NEZ001>004-019>022-054>056-160000-
NEBRASKA PANHANDLE

CITY           SKY/WX    TMP DP  RH WIND       PRES   REMARKS
SCOTTSBLUFF    MOSUNNY   66  21  18 W16G28    29.65F
ALLIANCE       SUNNY     63  17  17 W18       29.64F
CHADRON        MOSUNNY   63  21  20 W13       29.60F
KIMBALL        MOSUNNY   62  12  14 W25G32    29.68F
SIDNEY         SUNNY     65  14  14 W17G29    29.70F
$$

NEZ057>060-069>072-079>082-160000-
SOUTHWEST NEBRASKA

CITY           SKY/WX    TMP DP  RH WIND       PRES   REMARKS
NORTH PLATTE   PTSUNNY   65  22  19 SW15      29.68F
IMPERIAL       MOSUNNY   66  17  15 SW12      29.71F
LEXINGTON      PTSUNNY   66  31  27 S14G22    29.73F
MCCOOK         PTSUNNY   66  24  20 SW8       29.73F
OGALLALA       SUNNY     67  16  14 SW16G22   29.67F
$$

NEZ005>010-023>029-035>040-094-160000-
NORTH CENTRAL NEBRASKA

CITY           SKY/WX    TMP DP  RH WIND       PRES   REMARKS
VALENTINE      MOSUNNY   67  17  14 SW15G22   29.60F
AINSWORTH      MOSUNNY   66  26  21 S20       29.62F
BROKEN BOW     PTSUNNY   64  27  24 S20G29    29.69F
O`NEILL        PTSUNNY   56  24  28 S22G29    29.72F
ORD            CLOUDY    59  29  31 S14       29.72F
THEDFORD       PTSUNNY   67  22  18 SW18      29.66F
$$

NEZ041-046>049-061>064-073>077-083>087-160000-
SOUTH CENTRAL NEBRASKA

CITY           SKY/WX    TMP DP  RH WIND       PRES   REMARKS
GRAND ISLAND   CLOUDY    63  23  21 S22G30    29.79F
AURORA         PTSUNNY   63  26  24 S21G26    29.80F
HASTINGS       CLOUDY    62  21  20 S16G25    29.79F
HEBRON         PTSUNNY   63  18  17 S18G31    29.87F
HOLDREGE       CLOUDY    61  28  28 S15G22    29.76F
KEARNEY *      CLOUDY    61  30  31 S17       29.77F
YORK           PTSUNNY   59  25  27 S18G24    29.83F
$$

NEZ011>018-030>034-042>045-160000-
NORTHEAST NEBRASKA

CITY           SKY/WX    TMP DP  RH WIND       PRES   REMARKS
NORFOLK        MOSUNNY   54  29  38 S21G26    29.81F
ALBION         CLOUDY    55  28  35 S17G26    29.79F
BLAIR          MOSUNNY   51  26  37 SE16G28   29.92F
COLUMBUS *     CLOUDY    55  27  33 S15       29.84F
FREMONT        PTSUNNY   54  24  31 SE16      29.90F
TEKAMAH        MOSUNNY   53  26  35 S25G31    29.93F
$$

NEZ050>053-065>068-078-088>093-160000-
SOUTHEAST NEBRASKA

CITY           SKY/WX    TMP DP  RH WIND       PRES   REMARKS
LINCOLN        PTSUNNY   59  22  24 S16G29    29.90F
OMAHA EPPLEY   PTSUNNY   53  25  33 S22       29.94F
BEATRICE       PTSUNNY   60  19  20 S22       29.91F
FALLS CITY     PTSUNNY   54  27  35 S18       29.99F
NEBRASKA CITY  PTSUNNY   54  28  36 S22       29.96F
$$

NEZ044-045-051>053-067-160000-
OMAHA AREA

CITY           SKY/WX    TMP DP  RH WIND       PRES   REMARKS
OMAHA EPPLEY   PTSUNNY   53  25  33 S22       29.94F
BLAIR          MOSUNNY   51  26  37 SE16G28   29.92F
FREMONT        PTSUNNY   54  24  31 SE16      29.90F
OFFUTT AFB     PTSUNNY   53  27  36 SE18G25   29.95F
WAHOO          FAIR      55  23  28 S22       29.90F
$$



USA.gov is the U.S. government's official web portal to all federal, state and local government web resources and services.